Time,TemperatureF,DewpointF,PressureIn,WindDirection,WindDirectionDegrees,WindSpeedMPH,WindSpeedGustMPH,Humidity,HourlyPrecipIn,Conditions,Clouds,dailyrainin,SolarRadiationWatts/m^2,SoftwareType,DateUTC
2013-09-08 00:02:00,56.0,45.0,-100.00,WSW,245,2.0,4.0,67,0.00,,,0.00,0.000000,,2013-09-08 06:02:00,
2013-09-08 00:12:00,56.0,45.0,-100.00,WSW,245,2.0,4.0,67,0.00,,,0.00,0.000000,,2013-09-08 06:12:00,
2013-09-08 00:42:00,53.0,46.0,-100.00,West,261,3.0,5.0,76,0.00,,,0.00,0.000000,,2013-09-08 06:42:00,
2013-09-08 00:53:00,53.0,46.0,-100.00,West,261,3.0,5.0,76,0.00,,,0.00,0.000000,,2013-09-08 06:53:00,
2013-09-08 01:01:00,53.0,46.0,-100.00,West,261,3.0,5.0,76,0.00,,,0.00,0.000000,,2013-09-08 07:01:00,
2013-09-08 01:12:00,53.0,46.0,-100.00,West,261,3.0,5.0,76,0.00,,,0.00,0.000000,,2013-09-08 07:12:00,
2013-09-08 01:42:00,52.0,45.0,-100.00,WNW,289,2.0,6.0,76,0.00,,,0.00,0.000000,,2013-09-08 07:42:00,
2013-09-08 01:52:00,52.0,45.0,-100.00,WNW,289,2.0,6.0,76,0.00,,,0.00,0.000000,,2013-09-08 07:52:00,
2013-09-08 02:02:00,52.0,45.0,-100.00,WNW,289,2.0,6.0,76,0.00,,,0.00,0.000000,,2013-09-08 08:02:00,
2013-09-08 02:11:00,52.0,45.0,-100.00,WNW,289,2.0,6.0,76,0.00,,,0.00,0.000000,,2013-09-08 08:11:00,
2013-09-08 02:42:00,50.0,44.0,-100.00,SW,235,2.0,3.0,81,0.00,,,0.00,0.000000,,2013-09-08 08:42:00,
2013-09-08 02:52:00,50.0,44.0,-100.00,SW,235,2.0,3.0,81,0.00,,,0.00,0.000000,,2013-09-08 08:52:00,
2013-09-08 03:02:00,50.0,44.0,-100.00,SW,235,2.0,3.0,81,0.00,,,0.00,0.000000,,2013-09-08 09:02:00,
2013-09-08 03:11:00,50.0,44.0,-100.00,SW,235,2.0,3.0,81,0.00,,,0.00,0.000000,,2013-09-08 09:11:00,
2013-09-08 03:43:00,48.0,45.0,-100.00,SW,218,1.0,4.0,88,0.00,,,0.00,0.000000,,2013-09-08 09:43:00,
2013-09-08 03:54:00,48.0,45.0,-100.00,SW,218,1.0,4.0,88,0.00,,,0.00,0.000000,,2013-09-08 09:54:00,
2013-09-08 04:03:00,48.0,45.0,-100.00,SW,218,1.0,4.0,88,0.00,,,0.00,0.000000,,2013-09-08 10:03:00,
2013-09-08 04:12:00,48.0,45.0,-100.00,SW,218,1.0,4.0,88,0.00,,,0.00,0.000000,,2013-09-08 10:12:00,
2013-09-08 04:42:00,47.0,44.0,-100.00,West,264,1.0,5.0,89,0.00,,,0.00,0.000000,,2013-09-08 10:42:00,
2013-09-08 04:53:00,47.0,44.0,-100.00,West,264,1.0,5.0,89,0.00,,,0.00,0.000000,,2013-09-08 10:53:00,
2013-09-08 05:02:00,47.0,44.0,-100.00,West,264,1.0,5.0,89,0.00,,,0.00,0.000000,,2013-09-08 11:02:00,
2013-09-08 05:11:00,47.0,44.0,-100.00,West,264,1.0,5.0,89,0.00,,,0.00,0.000000,,2013-09-08 11:11:00,
2013-09-08 05:42:00,46.0,44.0,-100.00,WNW,292,2.0,5.0,91,0.00,,,0.00,0.000000,,2013-09-08 11:42:00,
2013-09-08 05:52:00,46.0,44.0,-100.00,WNW,292,2.0,5.0,91,0.00,,,0.00,0.000000,,2013-09-08 11:52:00,
2013-09-08 06:02:00,46.0,44.0,-100.00,WNW,292,2.0,5.0,91,0.00,,,0.00,0.000000,,2013-09-08 12:02:00,
2013-09-08 06:12:00,46.0,44.0,-100.00,WNW,292,2.0,5.0,91,0.00,,,0.00,0.000000,,2013-09-08 12:12:00,
2013-09-08 06:42:00,46.0,44.0,-100.00,West,278,2.0,5.0,92,0.00,,,0.00,0.000000,,2013-09-08 12:42:00,
2013-09-08 06:52:00,46.0,44.0,-100.00,West,278,2.0,5.0,92,0.00,,,0.00,0.000000,,2013-09-08 12:52:00,
2013-09-08 07:01:00,46.0,44.0,-100.00,West,278,2.0,5.0,92,0.00,,,0.00,0.000000,,2013-09-08 13:01:00,
2013-09-08 07:11:00,46.0,44.0,-100.00,West,278,2.0,5.0,92,0.00,,,0.00,0.000000,,2013-09-08 13:11:00,
2013-09-08 07:42:00,45.0,43.0,-100.00,SSW,209,2.0,5.0,93,0.00,,,0.00,0.000000,,2013-09-08 13:42:00,
2013-09-08 07:52:00,45.0,43.0,-100.00,SSW,209,2.0,5.0,93,0.00,,,0.00,0.000000,,2013-09-08 13:52:00,
2013-09-08 08:02:00,45.0,43.0,-100.00,SSW,209,2.0,5.0,93,0.00,,,0.00,0.000000,,2013-09-08 14:02:00,
2013-09-08 08:11:00,45.0,43.0,-100.00,SSW,209,2.0,5.0,93,0.00,,,0.00,0.000000,,2013-09-08 14:11:00,
2013-09-08 08:42:00,45.0,43.0,-100.00,West,267,3.0,6.0,94,0.00,,,0.00,1.000000,,2013-09-08 14:42:00,
2013-09-08 08:52:00,45.0,43.0,-100.00,West,267,3.0,6.0,94,0.00,,,0.00,1.000000,,2013-09-08 14:52:00,
2013-09-08 09:02:00,45.0,43.0,-100.00,West,267,3.0,6.0,94,0.00,,,0.00,1.000000,,2013-09-08 15:02:00,
2013-09-08 09:11:00,45.0,43.0,-100.00,West,267,3.0,6.0,94,0.00,,,0.00,1.000000,,2013-09-08 15:11:00,
2013-09-08 09:14:00,45.0,43.0,-100.00,WNW,286,3.0,5.0,93,0.00,,,0.00,18.000000,,2013-09-08 15:14:00,
2013-09-08 09:45:00,45.0,43.0,-100.00,WNW,286,3.0,5.0,93,0.00,,,0.00,18.000000,,2013-09-08 15:45:00,
2013-09-08 09:54:00,45.0,43.0,-100.00,WNW,286,3.0,5.0,93,0.00,,,0.00,18.000000,,2013-09-08 15:54:00,
2013-09-08 10:04:00,45.0,43.0,-100.00,WNW,286,3.0,5.0,93,0.00,,,0.00,18.000000,,2013-09-08 16:04:00,
2013-09-08 10:44:00,51.0,44.0,-100.00,South,189,3.0,7.0,77,0.00,,,0.00,135.000000,,2013-09-08 16:44:00,
2013-09-08 10:53:00,51.0,44.0,-100.00,South,189,3.0,7.0,77,0.00,,,0.00,135.000000,,2013-09-08 16:53:00,
2013-09-08 11:03:00,51.0,44.0,-100.00,South,189,3.0,7.0,77,0.00,,,0.00,135.000000,,2013-09-08 17:03:00,
2013-09-08 11:12:00,51.0,44.0,-100.00,South,189,3.0,7.0,77,0.00,,,0.00,135.000000,,2013-09-08 17:12:00,
2013-09-08 11:43:00,57.0,45.0,-100.00,WSW,242,5.0,8.0,65,0.00,,,0.00,207.000000,,2013-09-08 17:43:00,
2013-09-08 11:53:00,57.0,45.0,-100.00,WSW,242,5.0,8.0,65,0.00,,,0.00,207.000000,,2013-09-08 17:53:00,
2013-09-08 12:02:00,57.0,45.0,-100.00,WSW,242,5.0,8.0,65,0.00,,,0.00,207.000000,,2013-09-08 18:02:00,
2013-09-08 12:13:00,57.0,45.0,-100.00,WSW,242,5.0,8.0,65,0.00,,,0.00,207.000000,,2013-09-08 18:13:00,
2013-09-08 12:42:00,62.0,48.0,-100.00,West,264,2.0,6.0,60,0.00,,,0.00,304.000000,,2013-09-08 18:42:00,
2013-09-08 12:52:00,62.0,48.0,-100.00,West,264,2.0,6.0,60,0.00,,,0.00,304.000000,,2013-09-08 18:52:00,
2013-09-08 13:01:00,62.0,48.0,-100.00,West,264,2.0,6.0,60,0.00,,,0.00,304.000000,,2013-09-08 19:01:00,
2013-09-08 13:11:00,62.0,48.0,-100.00,West,264,2.0,6.0,60,0.00,,,0.00,304.000000,,2013-09-08 19:11:00,
2013-09-08 13:42:00,65.0,48.0,-100.00,SE,133,4.0,6.0,54,0.00,,,0.00,292.000000,,2013-09-08 19:42:00,
2013-09-08 13:52:00,65.0,48.0,-100.00,SE,133,4.0,6.0,54,0.00,,,0.00,292.000000,,2013-09-08 19:52:00,
2013-09-08 14:03:00,65.0,48.0,-100.00,SE,133,4.0,6.0,54,0.00,,,0.00,292.000000,,2013-09-08 20:03:00,
2013-09-08 14:11:00,65.0,48.0,-100.00,SE,133,4.0,6.0,54,0.00,,,0.00,292.000000,,2013-09-08 20:11:00,
2013-09-08 14:42:00,67.0,48.0,-100.00,East,92,5.0,12.0,51,0.00,,,0.00,618.000000,,2013-09-08 20:42:00,
2013-09-08 14:53:00,67.0,48.0,-100.00,East,92,5.0,12.0,51,0.00,,,0.00,618.000000,,2013-09-08 20:53:00,
2013-09-08 15:02:00,67.0,48.0,-100.00,East,92,5.0,12.0,51,0.00,,,0.00,618.000000,,2013-09-08 21:02:00,
2013-09-08 15:12:00,67.0,48.0,-100.00,East,92,5.0,12.0,51,0.00,,,0.00,618.000000,,2013-09-08 21:12:00,
2013-09-08 15:44:00,69.0,48.0,-100.00,ENE,65,7.0,12.0,47,0.00,,,0.00,782.000000,,2013-09-08 21:44:00,
2013-09-08 15:54:00,69.0,48.0,-100.00,ENE,65,7.0,12.0,47,0.00,,,0.00,782.000000,,2013-09-08 21:54:00,
2013-09-08 16:04:00,69.0,48.0,-100.00,ENE,65,7.0,12.0,47,0.00,,,0.00,782.000000,,2013-09-08 22:04:00,
2013-09-08 16:13:00,69.0,48.0,-100.00,ENE,65,7.0,12.0,47,0.00,,,0.00,782.000000,,2013-09-08 22:13:00,
2013-09-08 16:44:00,67.0,49.0,-100.00,NE,55,7.0,12.0,52,0.00,,,0.00,648.000000,,2013-09-08 22:44:00,
2013-09-08 16:53:00,67.0,49.0,-100.00,NE,55,7.0,12.0,52,0.00,,,0.00,648.000000,,2013-09-08 22:53:00,
2013-09-08 17:04:00,67.0,49.0,-100.00,NE,55,7.0,12.0,52,0.00,,,0.00,648.000000,,2013-09-08 23:04:00,
2013-09-08 17:12:00,67.0,49.0,-100.00,NE,55,7.0,12.0,52,0.00,,,0.00,648.000000,,2013-09-08 23:12:00,
2013-09-08 17:42:00,74.0,45.0,-100.00,SSE,160,5.0,15.0,35,0.00,,,0.00,772.000000,,2013-09-08 23:42:00,
2013-09-08 17:52:00,74.0,45.0,-100.00,SSE,160,5.0,15.0,35,0.00,,,0.00,772.000000,,2013-09-08 23:52:00,
2013-09-08 18:02:00,74.0,45.0,-100.00,SSE,160,5.0,15.0,35,0.00,,,0.00,772.000000,,2013-09-09 00:02:00,
2013-09-08 18:11:00,74.0,45.0,-100.00,SSE,160,5.0,15.0,35,0.00,,,0.00,772.000000,,2013-09-09 00:11:00,
2013-09-08 18:42:00,72.0,44.0,-100.00,SSW,203,5.0,14.0,37,0.00,,,0.00,656.000000,,2013-09-09 00:42:00,
2013-09-08 18:52:00,72.0,44.0,-100.00,SSW,203,5.0,14.0,37,0.00,,,0.00,656.000000,,2013-09-09 00:52:00,
2013-09-08 19:01:00,72.0,44.0,-100.00,SSW,203,5.0,14.0,37,0.00,,,0.00,656.000000,,2013-09-09 01:01:00,
2013-09-08 19:12:00,72.0,44.0,-100.00,SSW,203,5.0,14.0,37,0.00,,,0.00,656.000000,,2013-09-09 01:12:00,
2013-09-08 19:42:00,69.0,43.0,-100.00,SSW,200,4.0,12.0,39,0.00,,,0.00,334.000000,,2013-09-09 01:42:00,
2013-09-08 19:52:00,69.0,43.0,-100.00,SSW,200,4.0,12.0,39,0.00,,,0.00,334.000000,,2013-09-09 01:52:00,
2013-09-08 20:02:00,69.0,43.0,-100.00,SSW,200,4.0,12.0,39,0.00,,,0.00,334.000000,,2013-09-09 02:02:00,
2013-09-08 20:11:00,69.0,43.0,-100.00,SSW,200,4.0,12.0,39,0.00,,,0.00,334.000000,,2013-09-09 02:11:00,
2013-09-08 20:42:00,65.0,41.0,-100.00,West,269,3.0,11.0,41,0.00,,,0.00,156.000000,,2013-09-09 02:42:00,
2013-09-08 20:53:00,65.0,41.0,-100.00,West,269,3.0,11.0,41,0.00,,,0.00,156.000000,,2013-09-09 02:53:00,
2013-09-08 21:02:00,65.0,41.0,-100.00,West,269,3.0,11.0,41,0.00,,,0.00,156.000000,,2013-09-09 03:02:00,
2013-09-08 21:12:00,65.0,41.0,-100.00,West,269,3.0,11.0,41,0.00,,,0.00,156.000000,,2013-09-09 03:12:00,
2013-09-08 21:14:00,60.0,42.0,-100.00,WNW,295,3.0,9.0,51,0.00,,,0.00,16.000000,,2013-09-09 03:14:00,
2013-09-08 21:44:00,60.0,42.0,-100.00,WNW,295,3.0,9.0,51,0.00,,,0.00,16.000000,,2013-09-09 03:44:00,
2013-09-08 21:55:00,60.0,42.0,-100.00,WNW,295,3.0,9.0,51,0.00,,,0.00,16.000000,,2013-09-09 03:55:00,
2013-09-08 22:03:00,60.0,42.0,-100.00,WNW,295,3.0,9.0,51,0.00,,,0.00,16.000000,,2013-09-09 04:03:00,
2013-09-08 22:43:00,55.0,40.0,-100.00,WNW,292,3.0,6.0,56,0.00,,,0.00,0.000000,,2013-09-09 04:43:00,
2013-09-08 22:54:00,55.0,40.0,-100.00,WNW,292,3.0,6.0,56,0.00,,,0.00,0.000000,,2013-09-09 04:54:00,
2013-09-08 23:03:00,55.0,40.0,-100.00,WNW,292,3.0,6.0,56,0.00,,,0.00,0.000000,,2013-09-09 05:03:00,
2013-09-08 23:13:00,55.0,40.0,-100.00,WNW,292,3.0,6.0,56,0.00,,,0.00,0.000000,,2013-09-09 05:13:00,
2013-09-08 23:43:00,53.0,42.0,-100.00,NW,314,2.0,5.0,65,0.00,,,0.00,0.000000,,2013-09-09 05:43:00,
2013-09-08 23:53:00,53.0,42.0,-100.00,NW,314,2.0,5.0,65,0.00,,,0.00,0.000000,,2013-09-09 05:53:00,